Weather in Perelazovsky

Russia / Volgograd Oblast     49°08′11″N   42°34′20″E
temp.,
°C
wind,
m/s
gust,
m/s
humid.,
%
clouds,
%
prec.,
mm/h
press.,
hPa
HPBL,
m
6 august, fri
fri600:00+22e494019 0.0 1015173
03:00+21ese49438 0.0 1015163
06:00+21ese410425 0.0 1015234
09:00+28se67285 0.0 1014914
12:00+32ese5524100 0.0 10132040
15:00+33ese5522100 0.0 10112723
18:00+32e56229 0.0 10111644
21:00+25e51328100 0.0 1011247
7 august, sat
sat700:00+24e51231100 0.0 1012252
03:00+23ese6143183 0.0 1011309
06:00+23ese6153174 0.0 1011411
09:00+29ese71023100 0.0 1011873
12:00+33ese671799 0.0 10101885
15:00+35ese6716100 0.0 10092250
18:00+33e5819100 0.0 1009389
21:00+28ene6142295 0.0 1009305
8 august, sun
sun800:00+27e615249 0.0 1010368
03:00+25e51325100 0.0 1011313
06:00+26ese41226100 0.0 1011343
09:00+29ese61121100 0.0 1012578
12:00+34ese7916100 0.0 10112174
15:00+35e6915100 0.0 10113401
18:00+31ene71121100 0.0 1011718
21:00+30ne81320100 0.0 1012525
9 august, mon
mon900:00+29ene81719100 0.0 1011830
03:00+29e91725100 0.0 1011788
06:00+27e7153090 0.0 1012762
09:00+30ese91126100 0.0 10131303
12:00+33se7823100 0.0 10121894
15:00+36se562096 0.0 10112808
18:00+36sse242276 0.0 10112423
21:00+29sse5123186 0.2 1013307
10 august, tue
tue1000:00+26e483087 0.0 1013150
03:00+25e343167 0.0 101372
06:00+24ne3533100 0.0 1012106
09:00+30ese5720100 0.0 1011627
12:00+33sse5617100 0.0 10111518
15:00+25nnw3450100 0.3 101083
18:00+30e662856 0.0 10101274
21:00+25ene35451 0.0 100969